SCP
0 0 0 0 0 0 0 0 0 0 0 0 0 0 0 0 0 0 0 0 0 0 0 0 0 0 0 0 0 0 0 0 0 0 0 0 0 0 0 0 0 0 0
0 0 0 0 0 0 0 0 0 0 0 0 0 0 0 0 0 0 0 0 0 0 0 0 0 0 0 0 0 0 0 0 0 0 0 0 0 0 0 0 0 0 0
0 0 0 0 0 0 0 0 0 0 0 0 0 0 0 0 0 0 0 0 0 0 0 0 0 0 0 0 0 0 0 0 0 0 0 0 0 0 0 0 0 0 0
0 0 0 0 0 0 0 0 0 0 0 0 0 0 0 0 0 0 0 0 0 0 0 0 0 0 0 0 0 0 0 0 0 0 0 0 0 0 0 0 0 0 0
0 0 0 0 0 0 0 0 0 0 0 0 0 0 0 0 0 0 0 0 0 0 0 0 0 0 0 0 0 0 0 0 0 0 0 0 0 0 0 0 0 0 0
0 0 0 0 0 0 0 0 0 0 0 0 0 0 0 0 0 0 0 0 0 0 0 0 0 0 0 0 0 0 0 0 0 0 0 0 0 0 0 0 0 0 0
0 0 0 0 0 0 0 0 0 0 0 0 0 0 0 0 0 0 0 0 0 0 0 0 0 0 0 0 0 0 0 0 0 0 0 0 0 0 0 0 0 0 0
0 0 0 0 0 0 0 0 0 0 0 0 0 0 0 0 0 0 0 0 0 0 0 0 0 0 0 0 0 0 0 0 0 0 0 0 0 0 0 0 0 0 0
0 0 0 0 0 0 0 0 0 0 0 0 0 0 0 0 0 0 0 0 0 0 0 0 0 0 0 0 0 0 0 0 0 0 0 0 0 0 0 0 0 0 0
0 0 0 0 0 0 0 0 0 0 0 0 0 0 0 0 0 0 0 0 0 0 0 0 0 0 0 0 0 0 0 0 0 0 0 0 0 0 0 0 0 0 0
0 0 0 0 0 0 0 0 0 0 0 0 0 0 0 0 0 0 0 0 0 0 0 0 0 0 0 0 0 0 0 0 0 0 0 0 0 0 0 0 0 0 0
0 0 0 0 0 0 0 0 0 0 0 0 0 0 0 0 0 0 0 0 0 0 0 0 0 0 0 0 0 0 0 0 0 0 0 0 0 0 0 0 0 0 0
0 0 0 0 0 0 0 0 0 0 0 0 0 0 0 0 0 0 0 0 0 0 0 0 0 0 0 0 0 0 0 0 0 0 0 0 0 0 0 0 0 0 0
0 0 0 0 0 0 0 0 0 0 0 0 0 0 0 0 0 0 0 0 0 0 0 0 0 0 0 0 0 0 0 0 0 0 0 0 0 0 0 0 0 0 0
0 0 0 0 0 0 0 0 0 0 0 0 0 0 0 0 0 0 0 0 0 0 0 0 0 0 0 0 0 0 0 0 0 0 0 0 0 0 0 0 0 0 0
0 0 0 0 0 0 0 0 0 0 0 0 0 0 0 0 0 0 0 0 0 0 0 0 0 0 0 0 0 0 0 0 0 0 0 0 0 0 0 0 0 0 0
0 0 0 0 0 0 0 0 0 0 0 0 0 0 0 0 0 0 0 0 0 0 0 0 0 0 0 0 0 0 0 0 0 0 0 0 0 0 0 0 0 0 0
0 0 0 0 0 0 0 0 0 0 0 0 0 0 0 0 0 0 0 0 0 0 0 0 0 0 0 0 0 0 0 0 0 0 0 0 0 0 0 0 0 0 0
0 0 0 0 0 0 0 0 0 0 0 0 0 0 0 0 0 0 0 0 0 0 0 0 0 0 0 0 0 0 0 0 0 0 0 0 0 0 0 0 0 0 0
0 0 0 0 0 0 0 0 0 0 0 0 0 0 0 0 0 0 0 0 0 0 0 0 0 0 0 0 0 0 0 0 0 0 0 0 0 0 0 0 0 0 0
0 1 1 1 1 1 0 0 0 0 0 0 0 0 0 0 0 0 0 0 0 0 0 0 0 0 0 0 0 0 0 0 0 0 0 0 0 0 0 0 0 0 0
1 1 1 1 1 1 0 0 0 0 0 0 0 0 0 0 0 0 0 0 0 0 0 0 0 0 0 0 0 0 0 0 0 0 0 0 0 0 0 0 0 0 0
1 1 1 1 1 1 0 0 0 0 0 0 0 0 0 0 0 0 0 0 0 0 0 0 0 0 0 0 0 0 0 0 0 0 0 0 0 0 0 0 0 0 0
1 1 1 1 1 1 0 0 0 0 0 0 0 0 0 0 0 0 0 0 0 0 0 0 0 0 0 0 0 0 0 0 0 0 0 0 0 0 0 0 0 0 0
1 1 1 1 1 1 0 0 0 0 0 0 0 0 0 0 0 0 0 0 0 0 0 0 0 0 0 0 0 0 0 0 0 0 0 0 0 0 0 0 0 0 0
1 1 1 1 1 1 0 0 0 0 0 0 0 0 0 0 0 0 0 0 0 0 0 0 0 0 0 0 0 0 0 1 1 0 0 0 0 0 0 0 0 0 0
Wind_Speed
3 3 2 2 1 2 3 2 2 3 2 2 2 2 2 2 2 2 4 7 5 4 3 4 4 5 6 6 7 7 8 9 9 9 9 10 9 9 10 10 10 9 9
3 2 3 2 2 1 2 2 2 2 2 2 2 2 2 2 3 1 2 5 5 4 2 2 2 3 4 5 5 5 7 8 9 9 9 9 10 9 9 10 10 10 10
3 2 2 2 2 2 2 2 2 2 2 2 2 2 2 2 2 2 2 2 4 6 5 4 3 2 2 3 4 4 4 5 6 7 8 9 9 9 9 9 9 10 10
2 1 1 2 2 2 2 2 2 2 2 2 2 2 2 2 2 2 2 2 2 3 5 4 4 3 3 2 2 3 5 5 5 5 6 8 8 7 7 6 6 6 7
2 1 1 2 2 2 2 2 3 2 2 2 3 2 2 3 3 3 3 3 3 2 3 6 5 4 3 3 1 1 3 4 4 4 6 8 8 7 7 6 6 5 5
2 1 2 2 1 1 1 2 2 2 1 2 2 3 3 3 2 3 2 3 2 2 2 3 3 3 4 3 3 3 1 2 3 3 3 6 7 7 7 6 5 5 5
2 1 1 2 1 1 1 2 2 3 3 2 2 3 3 3 4 2 2 2 3 3 3 3 2 1 3 4 4 5 4 3 1 2 2 3 4 5 4 4 4 4 4
1 2 1 1 1 2 2 2 2 2 2 3 2 2 3 3 3 3 2 2 2 2 3 3 3 2 2 2 5 5 4 4 3 2 1 2 3 3 4 4 4 4 3
1 0 1 0 0 1 2 2 3 3 2 2 1 2 1 2 3 2 3 2 2 2 2 3 3 3 3 3 3 5 5 5 4 3 3 2 3 3 4 4 4 4 4
1 1 1 0 1 1 1 3 2 2 3 2 2 1 2 1 1 3 3 3 3 2 3 2 3 3 3 3 5 7 7 7 6 5 4 4 3 3 3 4 3 3 3
1 0 1 0 1 1 0 1 1 3 2 2 1 1 1 1 2 1 2 2 2 2 2 2 2 2 4 4 4 8 9 8 7 6 6 5 4 3 3 3 3 3 3
1 1 1 0 1 1 0 1 2 2 2 2 2 1 2 1 1 1 2 3 2 2 2 2 2 2 3 4 7 10 9 9 8 8 7 7 6 5 4 4 4 3 3
2 1 0 0 0 0 0 1 1 1 2 2 2 1 1 1 1 1 1 2 2 2 2 2 2 2 3 3 5 8 9 9 8 8 8 8 8 7 6 5 5 4 5
1 2 1 1 0 0 1 0 1 1 1 2 2 1 2 1 1 1 2 2 3 3 3 3 2 2 3 3 5 4 7 8 8 8 8 8 9 9 9 8 7 6 7
2 3 2 1 1 0 1 1 1 1 1 1 2 2 2 1 1 1 2 2 2 2 3 4 3 3 3 3 3 4 5 8 7 7 7 7 8 8 9 9 9 9 8
1 2 2 2 1 1 1 1 1 0 1 0 0 0 2 1 1 2 2 2 3 2 1 3 3 4 3 3 4 4 5 8 7 7 6 7 7 7 8 8 8 8 8
2 2 2 1 1 0 0 1 1 0 1 1 1 1 1 1 1 2 2 2 2 2 2 3 3 4 3 3 3 3 3 3 6 7 6 6 6 6 7 7 7 7 7
3 3 2 2 2 1 1 1 1 1 1 1 1 1 2 2 2 2 1 2 1 1 3 3 4 4 4 4 3 3 2 3 4 8 7 6 5 5 5 5 6 6 6
4 3 3 2 2 2 1 1 1 1 2 2 2 2 2 2 2 1 2 2 2 2 3 4 4 3 4 3 4 3 3 2 3 7 8 7 6 5 4 4 5 5 5
5 5 4 3 3 2 2 2 2 2 2 2 2 2 2 1 1 2 2 2 2 3 3 4 4 4 4 4 3 3 3 3 2 3 4 5 7 7 6 5 5 5 4
5 5 5 4 4 3 2 2 2 2 2 2 2 2 2 3 4 2 1 1 3 3 4 4 4 4 4 4 4 3 3 3 3 2 3 4 5 5 6 7 6 6 5
5 5 5 4 4 2 4 2 1 2 2 2 2 2 3 4 4 3 3 3 1 2 2 3 4 4 4 4 3 3 3 3 3 3 3 3 3 3 3 4 7 7 7
6 6 5 5 4 3 4 3 1 1 2 2 2 2 1 3 3 3 4 3 2 1 1 3 3 3 4 4 4 5 3 3 2 3 3 3 3 3 3 4 9 8 8
6 5 5 5 4 4 5 4 3 4 2 2 2 2 1 2 2 1 3 3 3 3 3 4 2 2 2 2 4 4 3 3 3 3 3 3 3 3 3 4 10 9 8
6 6 5 5 5 4 5 5 4 4 3 3 3 2 2 2 3 1 3 3 3 3 3 2 0 0 1 1 3 4 4 4 3 3 3 3 2 2 3 3 7 11 9
5 5 5 5 5 4 6 6 5 4 3 3 4 4 3 2 3 2 4 4 4 3 3 4 4 5 5 6 6 5 4 4 3 3 3 3 3 3 3 3 3 6 7
Wind_Direction
112 103 96 102 110 115 134 125 108 101 107 119 120 115 95 91 92 114 115 125 133 143 166 182 193 198 201 203 206 206 207 214 218 218 219 219 221 220 219 218 215 215 217
103 117 134 123 110 108 90 103 115 114 105 85 99 106 102 97 97 117 128 131 132 134 144 161 175 190 198 207 207 207 211 216 219 221 222 221 223 225 225 225 223 221 222
110 135 126 138 123 121 123 133 125 130 135 125 106 96 107 115 120 126 137 140 137 126 108 101 99 114 171 182 191 200 210 215 220 222 225 221 222 225 229 231 230 229 227
126 143 121 116 121 146 144 142 154 127 120 118 111 108 110 108 103 105 110 113 115 120 120 105 92 83 100 141 185 200 208 212 217 224 222 218 219 219 226 232 227 225 227
145 169 114 100 159 154 156 169 122 140 126 121 129 124 100 95 93 93 91 88 94 98 115 121 114 88 82 79 85 196 199 198 205 216 216 217 217 215 222 222 219 213 213
138 175 153 129 179 148 143 118 129 141 136 140 110 89 82 86 86 84 92 96 95 93 92 105 133 128 97 66 47 52 114 188 202 212 219 217 213 213 209 209 206 210 213
126 189 114 133 190 144 146 160 158 157 157 142 146 126 109 92 83 87 75 80 84 75 68 70 71 93 127 109 62 51 49 52 83 195 201 197 197 195 191 187 188 192 207
174 168 149 188 145 152 165 172 182 198 179 185 206 179 161 139 109 78 89 92 82 84 80 74 68 50 40 89 79 64 50 46 49 72 135 167 167 168 165 168 168 175 184
138 59 152 218 175 208 158 189 201 209 211 213 250 274 238 128 123 109 77 77 80 75 76 76 73 61 50 51 71 73 58 50 53 65 74 108 142 150 151 155 161 171 172
108 126 152 159 253 248 157 223 189 236 231 225 197 265 331 58 183 147 144 120 102 85 67 62 69 68 62 62 64 58 64 58 56 58 63 71 91 131 148 160 164 168 167
122 88 87 85 265 262 195 269 232 257 247 257 233 176 160 179 222 204 152 148 128 103 98 88 79 69 66 59 61 63 65 61 57 56 58 63 71 84 109 131 141 139 148
165 144 161 330 273 315 209 237 248 236 267 282 279 245 225 236 220 196 173 170 138 112 101 91 89 78 69 67 66 69 68 64 57 58 62 64 68 72 79 91 100 104 109
163 147 148 86 335 21 271 261 238 278 262 254 257 261 262 268 265 260 195 158 146 139 134 122 95 93 87 86 82 84 77 68 62 61 63 65 66 68 72 78 84 91 90
141 136 156 165 192 268 276 259 261 232 229 249 257 281 271 263 247 224 202 189 184 163 152 129 117 112 96 91 85 106 87 79 73 69 68 69 70 71 70 72 75 80 84
168 164 181 181 190 253 303 268 283 285 211 223 216 213 245 207 215 233 215 218 231 203 160 156 153 126 126 101 109 101 91 90 86 79 74 74 75 74 74 75 76 78 82
150 172 181 178 191 209 234 264 229 141 237 221 247 246 240 203 192 208 212 222 240 238 181 143 141 132 126 129 121 108 103 115 98 90 85 80 79 78 79 80 81 81 81
166 180 197 198 200 208 239 243 269 212 225 211 216 193 211 226 216 201 205 215 214 209 171 139 129 127 145 139 132 139 138 134 113 108 103 95 88 84 83 85 83 82 80
181 183 194 200 207 183 214 231 239 220 214 202 196 190 196 177 190 235 220 207 192 190 181 155 149 151 161 155 153 171 147 133 127 125 127 117 106 98 94 94 89 85 82
183 188 192 197 196 184 194 208 216 216 209 198 191 187 185 176 193 180 220 199 192 177 167 165 161 153 163 162 166 168 147 164 157 144 152 149 136 128 120 114 111 103 97
186 188 189 191 189 187 190 202 197 197 202 190 177 168 164 175 162 185 199 198 187 173 171 176 164 164 161 166 190 181 174 186 187 160 148 153 155 162 156 150 146 140 132
193 185 184 186 188 184 187 198 199 179 189 179 154 147 116 77 50 14 336 166 176 194 183 176 168 168 166 178 197 196 186 188 182 191 177 172 170 177 169 171 172 168 165
189 183 185 185 189 173 91 74 313 139 159 157 144 144 143 138 116 94 50 47 30 211 193 187 185 182 183 196 200 214 208 212 192 177 206 190 186 187 180 166 153 168 178
182 184 184 184 181 132 126 136 174 192 163 152 159 184 187 126 160 154 144 162 155 18 295 252 207 203 191 196 208 219 220 238 235 172 210 210 202 211 193 144 155 174 184
181 182 183 182 177 151 148 164 196 201 182 172 174 180 182 157 149 172 175 174 183 178 204 229 228 233 221 199 219 234 231 221 219 201 214 235 206 217 208 162 164 181 190
182 186 183 185 184 162 159 174 212 193 181 185 184 181 194 170 112 263 202 187 190 180 155 140 50 129 99 186 246 233 214 222 223 202 203 248 231 228 224 202 171 181 190
184 188 180 185 185 176 161 176 217 215 187 195 183 179 152 150 142 209 216 201 201 202 193 175 181 189 198 192 206 232 232 233 234 216 177 237 237 237 235 218 195 181 195